Location: Proctor
(47.8934°N, 114.3048°W)
Time: 11:06:57
(UTC+00:00)

Transit 4A - Pass Details

Date: 03 July 2024
Orbit: 870 x 973 km, 66.8° (Epoch: 13 July)

Event Time Altitude Azimuth Distance (km) Brightness Sun altitude
Rises 04:45:19 0° 238° (WSW) 3,454 11.0 -8.9°
Reaches altitude 10° 04:47:56 10° 246° (WSW) 2,516 10.4 -9.2°
Maximum altitude 04:53:23 41° 316° (NW) 1,255 9.3 -9.8°
Drops below altitude 10° 04:58:54 10° 26° (NNE) 2,540 10.6 -10.3°
Sets 05:01:34 0° 33° (NNE) 3,491 11.2 -10.6°
